QTR77 ORBI-LTFM

Flight info

Callsign QTR77
Flight time N/A
Altitude 32000
Route DCT TAGRU L718 KABAN DCT DYB UW73 GEM UT32 BUK UL615 YAVRU UA4 ERSEN ERSEN2B
Aircraft A332/H-SDE3GHIJ2J3J5M1RVWXY/LB2D1

Departure

Time 2026-05-08 08:25
Airport Baghdad International Airport / New Al Muthana Air Base (ORBI)

Arrival

Time N/A
Airport İstanbul Airport (LTFM)
Time Latitude Longitude Altitude Speed Heading
2026-05-08 08:20 33.26521 44.22934 117 ft 0 kts 360°
2026-05-08 08:22 33.26518 44.22934 117 ft 0 kts 180°
2026-05-08 08:23 33.25214 44.25133 116 ft 0 kts 60°
2026-05-08 08:23 33.25216 44.25135 116 ft 2 kts 60°
2026-05-08 08:23 33.25228 44.25160 113 ft 5 kts 60°
2026-05-08 08:24 33.25254 44.25212 113 ft 9 kts 54°
2026-05-08 08:24 33.25312 44.25225 113 ft 10 kts 336°
2026-05-08 08:24 33.25434 44.25141 113 ft 47 kts 330°
2026-05-08 08:24 33.26010 44.24741 117 ft 143 kts 330°
2026-05-08 08:25 33.27079 44.24000 502 ft 205 kts 330°
2026-05-08 08:25 33.28374 44.23122 1783 ft 220 kts 330°
2026-05-08 08:25 33.29820 44.22458 2858 ft 230 kts 350°
2026-05-08 08:25 33.31476 44.22245 3653 ft 245 kts 356°
2026-05-08 08:26 33.33215 44.22249 4574 ft 254 kts
2026-05-08 08:26 33.35013 44.22325 5586 ft 259 kts 359°
2026-05-08 08:26 33.36806 44.22374 6649 ft 264 kts 356°
2026-05-08 08:26 33.38664 44.22359 7582 ft 272 kts 353°
2026-05-08 08:27 33.40592 44.22279 8498 ft 281 kts 351°
2026-05-08 08:27 33.42571 44.22151 9467 ft 288 kts 349°
2026-05-08 08:27 33.44606 44.21994 10377 ft 297 kts 348°
2026-05-08 08:27 33.46693 44.21823 11288 ft 303 kts 348°
2026-05-08 08:28 33.48838 44.21645 12006 ft 318 kts 349°
2026-05-08 08:28 33.51133 44.21446 12369 ft 343 kts 349°
2026-05-08 08:28 33.53573 44.21244 12966 ft 359 kts 350°
2026-05-08 08:28 33.56098 44.21049 13791 ft 367 kts 351°
2026-05-08 08:29 33.58664 44.20859 14575 ft 373 kts 351°
2026-05-08 08:29 33.61274 44.20668 15380 ft 378 kts 351°
2026-05-08 08:29 33.63891 44.20476 16196 ft 383 kts 351°
2026-05-08 08:29 33.66566 44.20276 16999 ft 388 kts 351°
2026-05-08 08:30 33.69283 44.20070 17808 ft 393 kts 351°
2026-05-08 08:30 33.72037 44.19859 18572 ft 398 kts 351°
2026-05-08 08:30 33.77633 44.19427 19955 ft 407 kts 350°
2026-05-08 08:31 33.80473 44.19209 20657 ft 411 kts 350°
2026-05-08 08:31 33.83342 44.18987 21353 ft 414 kts 350°
2026-05-08 08:31 33.86236 44.18764 22019 ft 419 kts 350°
2026-05-08 08:31 33.89123 44.18540 22659 ft 423 kts 350°
2026-05-08 08:32 33.92074 44.18311 23293 ft 427 kts 350°
2026-05-08 08:32 33.95057 44.18080 23872 ft 432 kts 350°
2026-05-08 08:32 33.98075 44.17846 24401 ft 435 kts 350°
2026-05-08 08:32 34.01108 44.17611 24941 ft 439 kts 350°
2026-05-08 08:33 34.04172 44.17374 25451 ft 442 kts 350°
2026-05-08 08:33 34.07259 44.17134 25958 ft 446 kts 350°
2026-05-08 08:33 34.10363 44.16893 26463 ft 449 kts 350°
2026-05-08 08:33 34.13495 44.16649 26958 ft 452 kts 350°
2026-05-08 08:34 34.16649 44.16404 27443 ft 456 kts 350°
2026-05-08 08:34 34.19794 44.16159 27938 ft 459 kts 350°
2026-05-08 08:34 34.22996 44.15909 28404 ft 463 kts 350°
2026-05-08 08:34 34.26219 44.15657 28876 ft 466 kts 350°
2026-05-08 08:35 34.29472 44.15403 29349 ft 470 kts 349°
2026-05-08 08:35 34.32756 44.15146 29815 ft 473 kts 349°
2026-05-08 08:35 34.36054 44.14888 30250 ft 476 kts 349°
2026-05-08 08:35 34.39374 44.14628 30628 ft 480 kts 349°
2026-05-08 08:36 34.42722 44.14365 30990 ft 484 kts 349°
2026-05-08 08:36 34.46094 44.14101 31360 ft 488 kts 349°
2026-05-08 08:36 34.49482 44.13792 31725 ft 487 kts 345°
2026-05-08 08:36 34.52729 44.12834 31994 ft 475 kts 333°
2026-05-08 08:37 34.55749 44.11434 32044 ft 456 kts 328°
2026-05-08 08:37 34.58593 44.09866 32068 ft 444 kts 325°
2026-05-08 08:37 34.64281 44.06520 32037 ft 467 kts 326°
2026-05-08 08:38 34.67261 44.04817 32036 ft 480 kts 327°
2026-05-08 08:38 34.70307 44.03136 32035 ft 492 kts 328°
2026-05-08 08:38 34.76646 43.99773 32041 ft 498 kts 329°
2026-05-08 08:39 34.83014 43.96461 32061 ft 497 kts 329°
2026-05-08 08:39 34.89364 43.93141 32043 ft 495 kts 328°
2026-05-08 08:40 34.95691 43.89806 32039 ft 495 kts 328°
2026-05-08 08:40 35.02018 43.86458 32039 ft 495 kts 328°
2026-05-08 08:41 35.08294 43.83130 32049 ft 495 kts 328°
2026-05-08 08:41 35.14603 43.79783 32044 ft 493 kts 328°
2026-05-08 08:42 35.20898 43.76438 32039 ft 493 kts 328°
2026-05-08 08:42 35.27190 43.73087 32034 ft 493 kts 328°
2026-05-08 08:43 35.33487 43.69733 32046 ft 493 kts 328°
2026-05-08 08:43 35.39781 43.66383 32033 ft 493 kts 328°
2026-05-08 08:44 35.46073 43.63029 32050 ft 493 kts 328°
2026-05-08 08:44 35.52363 43.59669 32033 ft 492 kts 328°
2026-05-08 08:45 35.58644 43.56308 32041 ft 492 kts 328°
2026-05-08 08:45 35.64928 43.52941 32027 ft 492 kts 328°
2026-05-08 08:46 35.71195 43.49574 32043 ft 492 kts 328°
2026-05-08 08:46 35.77471 43.46198 32033 ft 492 kts 328°
2026-05-08 08:47 35.83703 43.42840 32063 ft 492 kts 328°
2026-05-08 08:47 35.89974 43.39455 32033 ft 492 kts 328°
2026-05-08 08:48 35.96249 43.36063 32035 ft 491 kts 328°
2026-05-08 08:48 36.02514 43.32669 32033 ft 491 kts 328°
2026-05-08 08:49 36.08778 43.29270 32034 ft 491 kts 327°
2026-05-08 08:49 36.14997 43.25871 32040 ft 490 kts 327°
2026-05-08 08:50 36.21232 43.22440 32040 ft 490 kts 327°
2026-05-08 08:50 36.27473 43.18999 32057 ft 490 kts 327°
2026-05-08 08:51 36.33704 43.15561 32045 ft 490 kts 327°
2026-05-08 08:51 36.39934 43.12118 32052 ft 490 kts 327°
2026-05-08 08:52 36.46160 43.08671 32047 ft 490 kts 327°
2026-05-08 08:52 36.52392 43.05216 32050 ft 490 kts 327°
2026-05-08 08:53 36.58582 43.01777 32059 ft 490 kts 327°
2026-05-08 08:53 36.64812 42.98311 32059 ft 490 kts 327°
2026-05-08 08:54 36.71039 42.94840 32059 ft 490 kts 327°
2026-05-08 08:54 36.77267 42.91363 32065 ft 490 kts 327°
2026-05-08 08:55 36.83474 42.87932 32068 ft 491 kts 327°
2026-05-08 08:55 36.89741 42.84481 32080 ft 491 kts 327°
2026-05-08 08:56 36.95986 42.81036 32073 ft 490 kts 327°
2026-05-08 08:56 37.02193 42.77601 32084 ft 490 kts 327°
2026-05-08 08:57 37.08429 42.74136 32074 ft 490 kts 327°
2026-05-08 08:57 37.14674 42.70668 32086 ft 490 kts 327°
2026-05-08 08:58 37.20605 42.66693 32100 ft 474 kts 315°
2026-05-08 08:58 37.23091 42.64041 32078 ft 462 kts 306°
2026-05-08 08:58 37.25133 42.61001 32091 ft 451 kts 296°
2026-05-08 08:59 37.26702 42.57656 32087 ft 440 kts 288°
2026-05-08 08:59 37.27857 42.54129 32085 ft 435 kts 283°
2026-05-08 08:59 37.29814 42.47004 32103 ft 433 kts 281°
2026-05-08 09:00 37.31663 42.39811 32082 ft 434 kts 281°
2026-05-08 09:00 37.33543 42.32574 32078 ft 435 kts 281°
2026-05-08 09:01 37.35448 42.25336 32077 ft 436 kts 281°
2026-05-08 09:01 37.37357 42.18110 32078 ft 436 kts 282°
2026-05-08 09:02 37.39269 42.10855 32078 ft 437 kts 282°
2026-05-08 09:02 37.41164 42.03639 32079 ft 437 kts 282°
2026-05-08 09:03 37.43067 41.96364 32081 ft 438 kts 282°
2026-05-08 09:03 37.44968 41.89071 32077 ft 439 kts 282°
2026-05-08 09:04 37.46868 41.81766 32079 ft 439 kts 282°
2026-05-08 09:04 37.48766 41.74449 32070 ft 439 kts 282°
2026-05-08 09:05 37.50660 41.67143 32087 ft 439 kts 282°
2026-05-08 09:05 37.52553 41.59815 32073 ft 440 kts 282°
2026-05-08 09:06 37.54442 41.52474 32071 ft 441 kts 282°
2026-05-08 09:06 37.56327 41.45129 32078 ft 440 kts 282°
2026-05-08 09:07 37.58195 41.37824 32073 ft 440 kts 282°
2026-05-08 09:07 37.59756 41.31703 32079 ft 440 kts 282°
2026-05-08 09:08 37.61626 41.24353 32082 ft 440 kts 282°
2026-05-08 09:08 37.63490 41.17002 32087 ft 440 kts 282°
2026-05-08 09:09 37.65352 41.09641 32094 ft 440 kts 282°
2026-05-08 09:09 37.67212 41.02269 32091 ft 441 kts 282°
2026-05-08 09:10 37.69065 40.94894 32091 ft 440 kts 282°
2026-05-08 09:10 37.70913 40.87522 32116 ft 440 kts 282°
2026-05-08 09:11 37.72760 40.80126 32097 ft 442 kts 282°
2026-05-08 09:11 37.74606 40.72718 32098 ft 442 kts 282°
2026-05-08 09:12 37.76438 40.65342 32102 ft 442 kts 282°
2026-05-08 09:12 37.78280 40.57909 32113 ft 442 kts 283°
2026-05-08 09:13 37.80114 40.50481 32109 ft 443 kts 283°
2026-05-08 09:13 37.81946 40.43037 32106 ft 442 kts 283°
2026-05-08 09:14 37.83769 40.35612 32107 ft 442 kts 283°
2026-05-08 09:14 37.85589 40.28170 32102 ft 443 kts 283°
2026-05-08 09:15 37.87417 40.20725 32102 ft 443 kts 284°
2026-05-08 09:15 37.89459 40.13396 32103 ft 445 kts 286°
2026-05-08 09:16 37.91631 40.06045 32118 ft 445 kts 286°
2026-05-08 09:16 37.93795 39.98685 32108 ft 446 kts 286°
2026-05-08 09:17 37.95936 39.91298 32114 ft 446 kts 286°
2026-05-08 09:17 37.98050 39.83949 32123 ft 446 kts 286°
2026-05-08 09:18 38.00174 39.76539 32116 ft 447 kts 286°
2026-05-08 09:18 38.02298 39.69111 32127 ft 447 kts 286°
2026-05-08 09:19 38.04403 39.61730 32138 ft 447 kts 286°
2026-05-08 09:19 38.06516 39.54303 32131 ft 448 kts 287°
2026-05-08 09:20 38.08631 39.46849 32129 ft 449 kts 287°
2026-05-08 09:20 38.10747 39.39370 32132 ft 449 kts 287°
2026-05-08 09:21 38.12858 39.31889 32136 ft 449 kts 286°
2026-05-08 09:23 38.20137 39.05571 32136 ft 453 kts 287°
2026-05-08 09:23 38.22231 38.98059 32141 ft 453 kts 288°
2026-05-08 09:24 38.24352 38.90489 32139 ft 455 kts 288°
2026-05-08 09:24 38.26470 38.82903 32131 ft 455 kts 288°
2026-05-08 09:25 38.28585 38.75309 32142 ft 454 kts 287°
2026-05-08 09:25 38.30700 38.67720 32138 ft 455 kts 288°
2026-05-08 09:26 38.32801 38.60166 32132 ft 455 kts 288°
2026-05-08 09:26 38.34907 38.52568 32129 ft 455 kts 287°
2026-05-08 09:27 38.37011 38.44951 32128 ft 456 kts 288°
2026-05-08 09:27 38.39103 38.37361 32128 ft 457 kts 288°
2026-05-08 09:28 38.41206 38.29708 32131 ft 457 kts 288°
2026-05-08 09:28 38.43300 38.22063 32135 ft 457 kts 289°
2026-05-08 09:29 38.45398 38.14382 32128 ft 460 kts 289°
2026-05-08 09:29 38.47678 38.06739 32129 ft 461 kts 292°
2026-05-08 09:30 38.50263 37.99252 32128 ft 461 kts 293°
2026-05-08 09:30 38.52888 37.91770 32128 ft 462 kts 294°
2026-05-08 09:31 38.55462 37.84299 32127 ft 462 kts 294°
2026-05-08 09:31 38.58025 37.76770 32127 ft 462 kts 293°
2026-05-08 09:32 38.60182 37.70397 32124 ft 462 kts 294°
2026-05-08 09:32 38.62742 37.62819 32125 ft 465 kts 294°
2026-05-08 09:33 38.65306 37.55216 32133 ft 463 kts 294°
2026-05-08 09:33 38.67836 37.47698 32132 ft 462 kts 294°
2026-05-08 09:34 38.70362 37.40166 32135 ft 461 kts 295°
2026-05-08 09:34 38.72891 37.32612 32135 ft 461 kts 295°
2026-05-08 09:35 38.75417 37.25044 32143 ft 461 kts 295°
2026-05-08 09:35 38.77934 37.17482 32144 ft 460 kts 295°
2026-05-08 09:36 38.80440 37.09944 32146 ft 459 kts 295°
2026-05-08 09:36 38.82943 37.02404 32151 ft 459 kts 295°
2026-05-08 09:37 38.85443 36.94858 32144 ft 459 kts 295°
2026-05-08 09:37 38.87934 36.87319 32151 ft 458 kts 295°
2026-05-08 09:38 38.90401 36.79832 32150 ft 458 kts 295°
2026-05-08 09:38 38.92879 36.72292 32154 ft 458 kts 295°
2026-05-08 09:39 38.95346 36.64762 32153 ft 457 kts 295°
2026-05-08 09:39 38.97803 36.57244 32149 ft 456 kts 295°
2026-05-08 09:40 39.00258 36.49714 32152 ft 456 kts 295°
2026-05-08 09:40 39.02710 36.42170 32158 ft 455 kts 296°
2026-05-08 09:41 39.05123 36.34727 32155 ft 452 kts 296°
2026-05-08 09:41 39.07546 36.27237 32156 ft 452 kts 296°
2026-05-08 09:42 39.09961 36.19751 32156 ft 452 kts 296°
2026-05-08 09:42 39.12368 36.12269 32141 ft 452 kts 296°
2026-05-08 09:43 39.14770 36.04782 32152 ft 452 kts 296°
2026-05-08 09:43 39.17367 35.97470 32155 ft 450 kts 299°
2026-05-08 09:44 39.20213 35.90264 32148 ft 449 kts 301°
2026-05-08 09:44 39.23047 35.83126 32151 ft 446 kts 300°